{"data":{"norad_id":68608,"intl_designator":"2026-073G","name":"STARLINK-37243","alt_names":[],"object_type":"PAYLOAD","status":"ACTIVE","operator":null,"country":"US","launch_date":"2026-04-07","launch_site_code":"AFWTR","launch_vehicle":null,"mission":null,"orbit_class":"UNKNOWN","rcs_meters":null,"size_class":null,"mass_kg":null,"dimensions":null,"purposes":["comms"],"wikipedia_slug":null,"has_3d_model":false,"image_url":null,"decayed_at":null,"tle_current":{"epoch":"2026-09-19T19:02:27.308832Z","epoch_age_seconds":105050,"freshness":"FRESH","line1":"1 68608U 26073G   26262.79337163  .00011939  00000+0  37147-3 0  9990","line2":"2 68608  97.2850 100.8428 0001954  89.9742 270.1724 15.33451147 25635","mean_motion":15.33451147,"eccentricity":0.0001954,"inclination_deg":97.285,"raan_deg":100.8428,"arg_perigee_deg":89.9742,"mean_anomaly_deg":270.1724,"bstar":0.00037147,"rev_number":2563,"period_min":93.905828223949,"perigee_km":464.1876338596,"apogee_km":466.86213692441,"semimajor_km":6843.661885392,"source":"CELESTRAK","updated_at":"2026-09-20T09:00:43.942738Z"}}}